Time,TemperatureF,DewpointF,PressureIn,WindDirection,WindDirectionDegrees,WindSpeedMPH,WindSpeedGustMPH,Humidity,HourlyPrecipIn,Conditions,Clouds,dailyrainin,SoftwareType,DateUTC
2013-05-18 09:00:00,69.8,63.7,30.07,ENE,68,0.0,0.0,81,0.00,,,0.00,WUHU216HW,2013-05-18 13:00:00,
2013-05-18 09:05:00,70.0,63.9,30.07,ENE,68,0.0,0.0,81,0.00,,,0.00,WUHU216HW,2013-05-18 13:05:00,
2013-05-18 09:10:00,70.4,64.3,30.07,ENE,68,0.0,0.0,81,0.00,,,0.00,WUHU216HW,2013-05-18 13:10:00,
2013-05-18 09:15:00,70.9,64.4,30.07,ENE,68,0.0,0.0,80,0.00,,,0.00,WUHU216HW,2013-05-18 13:15:00,
2013-05-18 09:20:00,71.3,64.8,30.08,SSE,158,0.4,0.4,80,0.00,,,0.00,WUHU216HW,2013-05-18 13:20:00,
2013-05-18 09:25:00,71.3,64.8,30.07,SSE,158,0.0,0.4,80,0.00,,,0.00,WUHU216HW,2013-05-18 13:25:00,
2013-05-18 09:30:00,71.5,65.0,30.07,SSE,158,0.0,0.0,80,0.00,,,0.00,WUHU216HW,2013-05-18 13:30:00,
2013-05-18 09:35:00,71.6,64.8,30.08,WNW,293,0.0,0.0,79,0.00,,,0.00,WUHU216HW,2013-05-18 13:35:00,
2013-05-18 09:40:00,71.8,64.6,30.08,NNW,338,0.7,0.7,78,0.00,,,0.00,WUHU216HW,2013-05-18 13:40:00,
2013-05-18 09:45:00,71.8,64.6,30.08,NNW,338,0.0,0.7,78,0.00,,,0.00,WUHU216HW,2013-05-18 13:45:00,
2013-05-18 09:50:00,71.8,64.6,30.08,NNW,338,0.0,0.0,78,0.00,,,0.00,WUHU216HW,2013-05-18 13:50:00,
2013-05-18 09:55:00,71.6,64.5,30.08,NNW,338,0.0,0.0,78,0.00,,,0.00,WUHU216HW,2013-05-18 13:55:00,
2013-05-18 10:00:00,71.5,63.8,30.08,NNW,338,0.4,0.4,77,0.00,,,0.00,WUHU216HW,2013-05-18 14:00:00,
2013-05-18 10:05:00,71.5,63.8,30.07,NNW,338,0.0,0.4,77,0.00,,,0.00,WUHU216HW,2013-05-18 14:05:00,
2013-05-18 10:10:00,71.6,64.0,30.07,NNW,338,0.0,0.0,77,0.00,,,0.00,WUHU216HW,2013-05-18 14:10:00,
2013-05-18 10:15:00,71.8,64.2,30.07,NNW,338,0.0,0.0,77,0.00,,,0.00,WUHU216HW,2013-05-18 14:15:00,
2013-05-18 10:20:00,71.6,64.0,30.07,NNW,338,0.0,0.0,77,0.00,,,0.00,WUHU216HW,2013-05-18 14:20:00,
2013-05-18 10:25:00,71.8,63.8,30.07,NNW,338,0.0,0.0,76,0.00,,,0.00,WUHU216HW,2013-05-18 14:25:00,
2013-05-18 10:30:00,71.6,63.6,30.07,NNW,338,0.0,0.0,76,0.00,,,0.00,WUHU216HW,2013-05-18 14:30:00,
2013-05-18 10:35:00,71.6,63.6,30.07,NNW,338,0.0,0.0,76,0.00,,,0.00,WUHU216HW,2013-05-18 14:35:00,
2013-05-18 10:40:00,71.6,63.6,30.07,NNW,338,0.0,0.0,76,0.00,,,0.00,WUHU216HW,2013-05-18 14:40:00,
2013-05-18 10:45:00,71.6,63.6,30.07,NNW,338,0.0,0.0,76,0.00,,,0.00,WUHU216HW,2013-05-18 14:45:00,
2013-05-18 10:50:00,71.6,63.6,30.07,NNW,338,0.0,0.0,76,0.00,,,0.00,WUHU216HW,2013-05-18 14:50:00,
2013-05-18 10:55:00,71.3,63.6,30.08,NNW,338,0.0,0.0,77,0.00,,,0.00,WUHU216HW,2013-05-18 14:55:00,
2013-05-18 11:00:00,71.1,63.5,30.08,NNW,338,0.0,0.0,77,0.00,,,0.00,WUHU216HW,2013-05-18 15:00:00,
2013-05-18 11:05:00,70.9,63.7,30.08,NNW,338,0.0,0.0,78,0.00,,,0.00,WUHU216HW,2013-05-18 15:05:00,
2013-05-18 11:10:00,70.7,63.9,30.08,NNW,338,0.0,0.0,79,0.00,,,0.00,WUHU216HW,2013-05-18 15:10:00,
2013-05-18 11:15:00,70.6,64.1,30.08,NNW,338,0.0,0.0,80,0.00,,,0.00,WUHU216HW,2013-05-18 15:15:00,
2013-05-18 11:20:00,70.6,64.1,30.07,NNW,338,0.0,0.0,80,0.00,,,0.00,WUHU216HW,2013-05-18 15:20:00,
2013-05-18 11:25:00,70.9,64.8,30.07,NNW,338,0.0,0.0,81,0.00,,,0.00,WUHU216HW,2013-05-18 15:25:00,
2013-05-18 11:30:00,70.9,64.4,30.07,NNW,338,0.0,0.0,80,0.00,,,0.00,WUHU216HW,2013-05-18 15:30:00,
2013-05-18 11:35:00,71.3,64.8,30.07,NNW,338,0.0,0.0,80,0.00,,,0.00,WUHU216HW,2013-05-18 15:35:00,
2013-05-18 11:40:00,71.8,65.3,30.07,NNW,338,0.0,0.0,80,0.00,,,0.00,WUHU216HW,2013-05-18 15:40:00,
2013-05-18 11:45:00,72.0,65.2,30.07,SW,225,0.4,0.9,79,0.00,,,0.00,WUHU216HW,2013-05-18 15:45:00,
2013-05-18 11:50:00,72.0,65.2,30.07,SE,135,0.0,0.9,79,0.00,,,0.00,WUHU216HW,2013-05-18 15:50:00,
2013-05-18 11:55:00,72.0,65.2,30.07,SE,135,0.0,0.0,79,0.00,,,0.00,WUHU216HW,2013-05-18 15:55:00,
2013-05-18 12:00:00,72.0,65.2,30.07,SE,135,0.0,0.0,79,0.00,,,0.00,WUHU216HW,2013-05-18 16:00:00,
2013-05-18 12:05:00,72.4,65.5,30.07,WNW,293,0.0,0.0,79,0.00,,,0.00,WUHU216HW,2013-05-18 16:05:00,
2013-05-18 12:10:00,72.9,66.1,30.07,NE,45,0.7,0.7,79,0.00,,,0.00,WUHU216HW,2013-05-18 16:10:00,
2013-05-18 12:15:00,73.1,65.9,30.07,NE,45,0.0,0.7,78,0.00,,,0.00,WUHU216HW,2013-05-18 16:15:00,
2013-05-18 12:20:00,73.4,66.3,30.07,NNE,23,0.0,0.4,78,0.00,,,0.00,WUHU216HW,2013-05-18 16:20:00,
2013-05-18 12:25:00,73.4,65.8,30.07,SSW,203,0.0,0.0,77,0.00,,,0.00,WUHU216HW,2013-05-18 16:25:00,
2013-05-18 12:30:00,73.3,65.6,30.07,SSW,203,0.0,0.2,77,0.00,,,0.00,WUHU216HW,2013-05-18 16:30:00,
2013-05-18 12:35:00,73.4,65.8,30.07,SW,225,0.0,0.2,77,0.00,,,0.00,WUHU216HW,2013-05-18 16:35:00,
2013-05-18 12:40:00,73.8,66.2,30.07,SW,225,0.0,0.0,77,0.00,,,0.00,WUHU216HW,2013-05-18 16:40:00,
2013-05-18 12:45:00,73.8,65.8,30.07,SW,225,0.0,0.0,76,0.00,,,0.00,WUHU216HW,2013-05-18 16:45:00,
2013-05-18 12:50:00,73.8,65.8,30.07,West,270,0.0,0.0,76,0.00,,,0.00,WUHU216HW,2013-05-18 16:50:00,
2013-05-18 12:55:00,73.8,65.8,30.07,SW,225,0.4,0.4,76,0.00,,,0.00,WUHU216HW,2013-05-18 16:55:00,